THY3406 LTFJ-LTAC

Flight info

Callsign THY3406
Flight time 0h 37m
Altitude 27000
Route VICEN UT380 ASMAP UL333 LATGA
Aircraft B738/M-SDE2E3FGHIRWXY/LB1

Departure

Time 2026-04-27 03:25
Airport Istanbul Sabiha Gökçen International Airport (LTFJ)

Arrival

Time 2026-04-27 04:02
Airport Esenboğa International Airport (LTAC)
Time Latitude Longitude Altitude Speed Heading
2026-04-27 03:04 40.90743 29.31998 310 ft 0 kts 334°
2026-04-27 03:10 40.90741 29.31999 310 ft 2 kts 334°
2026-04-27 03:10 40.90725 29.32010 310 ft 3 kts 328°
2026-04-27 03:11 40.90708 29.32025 308 ft 3 kts 319°
2026-04-27 03:11 40.90694 29.32044 310 ft 3 kts 303°
2026-04-27 03:11 40.90686 29.32066 309 ft 3 kts 270°
2026-04-27 03:11 40.90687 29.32080 310 ft 1 kts 243°
2026-04-27 03:13 40.90683 29.32071 310 ft 3 kts 243°
2026-04-27 03:13 40.90662 29.32014 310 ft 11 kts 243°
2026-04-27 03:13 40.90624 29.31914 310 ft 13 kts 243°
2026-04-27 03:13 40.90585 29.31810 310 ft 12 kts 243°
2026-04-27 03:14 40.90546 29.31709 310 ft 12 kts 244°
2026-04-27 03:14 40.90511 29.31609 309 ft 12 kts 246°
2026-04-27 03:14 40.90477 29.31511 309 ft 12 kts 244°
2026-04-27 03:14 40.90442 29.31413 310 ft 12 kts 244°
2026-04-27 03:15 40.90405 29.31313 310 ft 12 kts 244°
2026-04-27 03:15 40.90367 29.31215 310 ft 12 kts 243°
2026-04-27 03:15 40.90332 29.31119 310 ft 12 kts 244°
2026-04-27 03:15 40.90295 29.31021 309 ft 12 kts 244°
2026-04-27 03:16 40.90260 29.30925 310 ft 12 kts 244°
2026-04-27 03:16 40.90195 29.30886 309 ft 12 kts 160°
2026-04-27 03:16 40.90123 29.30930 310 ft 11 kts 153°
2026-04-27 03:16 40.90052 29.30976 310 ft 11 kts 153°
2026-04-27 03:17 40.89982 29.31021 310 ft 11 kts 155°
2026-04-27 03:17 40.89911 29.31057 310 ft 11 kts 162°
2026-04-27 03:17 40.89838 29.31093 310 ft 11 kts 156°
2026-04-27 03:17 40.89767 29.31142 310 ft 12 kts 146°
2026-04-27 03:18 40.89704 29.31205 310 ft 11 kts 150°
2026-04-27 03:18 40.89635 29.31249 310 ft 11 kts 154°
2026-04-27 03:18 40.89564 29.31295 308 ft 12 kts 154°
2026-04-27 03:18 40.89477 29.31350 305 ft 15 kts 154°
2026-04-27 03:19 40.89372 29.31418 303 ft 18 kts 154°
2026-04-27 03:19 40.89289 29.31467 301 ft 8 kts 164°
2026-04-27 03:19 40.89233 29.31450 300 ft 9 kts 217°
2026-04-27 03:19 40.89175 29.31430 301 ft 9 kts 176°
2026-04-27 03:20 40.89116 29.31400 299 ft 10 kts 229°
2026-04-27 03:20 40.89084 29.31318 301 ft 11 kts 244°
2026-04-27 03:20 40.89049 29.31224 300 ft 12 kts 244°
2026-04-27 03:20 40.89010 29.31119 298 ft 14 kts 244°
2026-04-27 03:21 40.88966 29.31000 296 ft 16 kts 244°
2026-04-27 03:21 40.88914 29.30861 295 ft 18 kts 244°
2026-04-27 03:21 40.88855 29.30699 290 ft 21 kts 246°
2026-04-27 03:21 40.88790 29.30519 283 ft 22 kts 244°
2026-04-27 03:22 40.88734 29.30366 279 ft 6 kts 244°
2026-04-27 03:22 40.88725 29.30342 282 ft 4 kts 244°
2026-04-27 03:22 40.88704 29.30301 278 ft 7 kts 224°
2026-04-27 03:22 40.88659 29.30292 278 ft 7 kts 166°
2026-04-27 03:23 40.88617 29.30317 278 ft 7 kts 154°
2026-04-27 03:23 40.88576 29.30345 280 ft 7 kts 152°
2026-04-27 03:23 40.88547 29.30387 281 ft 6 kts 107°
2026-04-27 03:23 40.88555 29.30444 284 ft 6 kts 67°
2026-04-27 03:24 40.88573 29.30495 287 ft 6 kts 64°
2026-04-27 03:24 40.88634 29.30661 294 ft 53 kts 64°
2026-04-27 03:24 40.88913 29.31414 300 ft 126 kts 62°
2026-04-27 03:24 40.89337 29.32588 659 ft 159 kts 66°
2026-04-27 03:25 40.89780 29.34051 1337 ft 179 kts 70°
2026-04-27 03:25 40.90185 29.35629 2076 ft 186 kts 75°
2026-04-27 03:25 40.90115 29.37418 2470 ft 210 kts 106°
2026-04-27 03:25 40.89727 29.39350 2895 ft 223 kts 94°
2026-04-27 03:26 40.89572 29.41420 3556 ft 231 kts 93°
2026-04-27 03:26 40.89315 29.43574 4160 ft 246 kts 109°
2026-04-27 03:26 40.88412 29.45550 4779 ft 261 kts 127°
2026-04-27 03:26 40.86903 29.47035 5300 ft 277 kts 154°
2026-04-27 03:27 40.85146 29.48123 6073 ft 281 kts 155°
2026-04-27 03:27 40.83354 29.49237 6693 ft 291 kts 154°
2026-04-27 03:27 40.81497 29.50401 7350 ft 296 kts 155°
2026-04-27 03:27 40.79654 29.51562 8119 ft 297 kts 155°
2026-04-27 03:28 40.77851 29.52852 8949 ft 297 kts 141°
2026-04-27 03:28 40.76574 29.55013 9479 ft 301 kts 112°
2026-04-27 03:28 40.75910 29.57618 10291 ft 300 kts 104°
2026-04-27 03:28 40.75382 29.60366 10567 ft 320 kts 102°
2026-04-27 03:29 40.74833 29.63309 10804 ft 339 kts 102°
2026-04-27 03:29 40.74233 29.66386 11256 ft 349 kts 103°
2026-04-27 03:29 40.73606 29.69510 11850 ft 355 kts 103°
2026-04-27 03:29 40.73246 29.72721 12572 ft 354 kts 90°
2026-04-27 03:30 40.73191 29.75927 13335 ft 355 kts 88°
2026-04-27 03:30 40.73172 29.79187 13927 ft 356 kts 89°
2026-04-27 03:30 40.73149 29.82496 13997 ft 363 kts 89°
2026-04-27 03:30 40.73114 29.85811 13997 ft 360 kts 89°
2026-04-27 03:31 40.73067 29.89098 13988 ft 358 kts 90°
2026-04-27 03:31 40.73014 29.92383 14006 ft 358 kts 89°
2026-04-27 03:31 40.72959 29.95674 14006 ft 359 kts 90°
2026-04-27 03:31 40.72900 29.98962 14007 ft 360 kts 90°
2026-04-27 03:32 40.72836 30.02183 14032 ft 360 kts 90°
2026-04-27 03:32 40.72765 30.05484 14029 ft 360 kts 91°
2026-04-27 03:32 40.72335 30.08753 14112 ft 368 kts 108°
2026-04-27 03:32 40.71452 30.11946 14754 ft 370 kts 110°
2026-04-27 03:33 40.70563 30.15106 15633 ft 367 kts 109°
2026-04-27 03:33 40.69694 30.18282 16330 ft 370 kts 109°
2026-04-27 03:33 40.68837 30.21504 16981 ft 374 kts 108°
2026-04-27 03:33 40.67978 30.24764 17653 ft 378 kts 109°
2026-04-27 03:34 40.67111 30.28045 18330 ft 381 kts 108°
2026-04-27 03:34 40.66362 30.31357 18884 ft 384 kts 99°
2026-04-27 03:34 40.66017 30.34843 19499 ft 384 kts 95°
2026-04-27 03:34 40.65757 30.38364 20098 ft 387 kts 94°
2026-04-27 03:35 40.65502 30.41902 20634 ft 390 kts 95°
2026-04-27 03:35 40.65231 30.45485 21186 ft 393 kts 94°
2026-04-27 03:35 40.64945 30.49081 21732 ft 397 kts 95°
2026-04-27 03:35 40.64644 30.52719 22293 ft 399 kts 95°
2026-04-27 03:36 40.64340 30.56340 23011 ft 397 kts 95°
2026-04-27 03:36 40.64041 30.59898 23753 ft 394 kts 95°
2026-04-27 03:36 40.63738 30.63475 24343 ft 392 kts 95°
2026-04-27 03:36 40.63429 30.67043 24893 ft 392 kts 95°
2026-04-27 03:37 40.63111 30.70606 25453 ft 391 kts 97°
2026-04-27 03:37 40.62578 30.74078 26030 ft 390 kts 104°
2026-04-27 03:37 40.61846 30.77512 26603 ft 389 kts 105°
2026-04-27 03:37 40.61076 30.80930 26955 ft 389 kts 105°
2026-04-27 03:38 40.60312 30.84340 26946 ft 388 kts 106°
2026-04-27 03:38 40.59562 30.87751 26985 ft 388 kts 105°
2026-04-27 03:38 40.58820 30.91179 26956 ft 390 kts 105°
2026-04-27 03:38 40.58086 30.94620 26953 ft 390 kts 105°
2026-04-27 03:39 40.57356 30.98058 26957 ft 391 kts 105°
2026-04-27 03:39 40.56643 31.01425 26957 ft 391 kts 105°
2026-04-27 03:39 40.55911 31.04877 26967 ft 391 kts 105°
2026-04-27 03:39 40.55179 31.08332 26944 ft 392 kts 105°
2026-04-27 03:40 40.54448 31.11785 26948 ft 391 kts 105°
2026-04-27 03:40 40.53716 31.15229 26944 ft 391 kts 105°
2026-04-27 03:40 40.52978 31.18668 26947 ft 390 kts 105°
2026-04-27 03:40 40.52240 31.22092 26948 ft 389 kts 105°
2026-04-27 03:41 40.51498 31.25519 26933 ft 389 kts 105°
2026-04-27 03:41 40.50756 31.28942 26929 ft 389 kts 105°
2026-04-27 03:41 40.50028 31.32309 26875 ft 387 kts 105°
2026-04-27 03:41 40.49302 31.35681 26736 ft 378 kts 105°
2026-04-27 03:42 40.48591 31.38993 26398 ft 375 kts 105°
2026-04-27 03:42 40.47886 31.42273 26065 ft 372 kts 105°
2026-04-27 03:42 40.47180 31.45528 25699 ft 369 kts 105°
2026-04-27 03:42 40.46476 31.48757 25334 ft 367 kts 105°
2026-04-27 03:43 40.45773 31.51968 24973 ft 365 kts 105°
2026-04-27 03:43 40.45072 31.55158 24603 ft 363 kts 105°
2026-04-27 03:43 40.44375 31.58336 24247 ft 361 kts 106°
2026-04-27 03:43 40.43682 31.61499 23879 ft 360 kts 105°
2026-04-27 03:44 40.43001 31.64616 23471 ft 359 kts 105°
2026-04-27 03:44 40.42315 31.67758 23055 ft 357 kts 105°
2026-04-27 03:44 40.41633 31.70882 22675 ft 355 kts 105°
2026-04-27 03:44 40.40953 31.73993 22306 ft 353 kts 105°
2026-04-27 03:45 40.40279 31.77074 21942 ft 350 kts 105°
2026-04-27 03:45 40.39608 31.80142 21580 ft 348 kts 105°
2026-04-27 03:45 40.38941 31.83194 21218 ft 346 kts 105°
2026-04-27 03:45 40.38280 31.86222 20866 ft 345 kts 105°
2026-04-27 03:46 40.37617 31.89243 20520 ft 343 kts 105°
2026-04-27 03:46 40.36953 31.92244 20163 ft 342 kts 105°
2026-04-27 03:46 40.36288 31.95235 19820 ft 341 kts 106°
2026-04-27 03:46 40.35614 31.98219 19418 ft 342 kts 106°
2026-04-27 03:47 40.34945 32.01122 19072 ft 341 kts 106°
2026-04-27 03:47 40.34258 32.04089 18726 ft 340 kts 107°
2026-04-27 03:47 40.33575 32.07027 18378 ft 339 kts 106°
2026-04-27 03:47 40.33169 32.10045 17916 ft 336 kts 85°
2026-04-27 03:48 40.33463 32.13043 17646 ft 329 kts 80°
2026-04-27 03:48 40.33822 32.16002 17265 ft 328 kts 80°
2026-04-27 03:48 40.34184 32.18947 16908 ft 327 kts 80°
2026-04-27 03:48 40.34540 32.21876 16562 ft 325 kts 80°
2026-04-27 03:49 40.34889 32.24796 16221 ft 324 kts 80°
2026-04-27 03:49 40.35229 32.27709 15876 ft 322 kts 80°
2026-04-27 03:49 40.35562 32.30613 15534 ft 322 kts 81°
2026-04-27 03:49 40.35880 32.33522 15196 ft 321 kts 84°
2026-04-27 03:50 40.35696 32.36400 14868 ft 323 kts 103°
2026-04-27 03:50 40.35116 32.39253 14533 ft 323 kts 105°
2026-04-27 03:50 40.34520 32.42095 14188 ft 323 kts 105°
2026-04-27 03:50 40.33935 32.44933 13833 ft 322 kts 104°
2026-04-27 03:51 40.33364 32.47768 13463 ft 321 kts 104°
2026-04-27 03:51 40.32806 32.50597 13106 ft 320 kts 104°
2026-04-27 03:51 40.32256 32.53413 12772 ft 318 kts 104°
2026-04-27 03:51 40.31708 32.56218 12431 ft 317 kts 104°
2026-04-27 03:52 40.31158 32.59013 12093 ft 316 kts 104°
2026-04-27 03:52 40.30605 32.61804 11760 ft 315 kts 104°
2026-04-27 03:52 40.29808 32.64461 11408 ft 315 kts 126°
2026-04-27 03:52 40.28214 32.66376 11090 ft 312 kts 152°
2026-04-27 03:53 40.26886 32.67085 10811 ft 313 kts 167°
2026-04-27 03:53 40.24735 32.67297 10454 ft 310 kts 190°
2026-04-27 03:53 40.22656 32.66704 10289 ft 301 kts 197°
2026-04-27 03:53 40.20637 32.66020 10044 ft 297 kts 197°
2026-04-27 03:54 40.18638 32.65344 9713 ft 296 kts 196°
2026-04-27 03:54 40.15996 32.64477 9313 ft 294 kts 195°
2026-04-27 03:54 40.14656 32.64045 9105 ft 293 kts 195°
2026-04-27 03:54 40.12683 32.63409 8831 ft 290 kts 196°
2026-04-27 03:55 40.10752 32.62919 8696 ft 283 kts 181°
2026-04-27 03:55 40.08884 32.63457 8600 ft 271 kts 152°
2026-04-27 03:55 40.07440 32.64933 8488 ft 259 kts 128°
2026-04-27 03:55 40.06530 32.66892 8376 ft 247 kts 108°
2026-04-27 03:56 40.06057 32.68997 8284 ft 236 kts 102°
2026-04-27 03:56 40.05680 32.71058 8121 ft 232 kts 101°
2026-04-27 03:56 40.05298 32.73101 7868 ft 234 kts 109°
2026-04-27 03:56 40.04566 32.75013 7597 ft 236 kts 116°
2026-04-27 03:57 40.03799 32.76912 7306 ft 237 kts 115°
2026-04-27 03:57 40.03048 32.78828 7021 ft 237 kts 114°
2026-04-27 03:57 40.02308 32.80734 6737 ft 233 kts 114°
2026-04-27 03:57 40.01593 32.82581 6445 ft 224 kts 114°
2026-04-27 03:58 40.00913 32.84336 6150 ft 215 kts 114°
2026-04-27 03:58 40.00253 32.86040 5863 ft 205 kts 113°
2026-04-27 03:58 39.99960 32.87736 5634 ft 180 kts 75°
2026-04-27 03:58 40.00547 32.89060 5598 ft 167 kts 51°
2026-04-27 03:59 40.01263 32.90218 5336 ft 158 kts 45°
2026-04-27 03:59 40.02044 32.91190 5095 ft 153 kts 43°
2026-04-27 03:59 40.02854 32.92078 4912 ft 154 kts 38°
2026-04-27 03:59 40.03705 32.92919 4677 ft 152 kts 38°
2026-04-27 04:00 40.04572 32.93750 4463 ft 157 kts 38°
2026-04-27 04:00 40.05446 32.94586 4246 ft 158 kts 38°
2026-04-27 04:00 40.06325 32.95431 4034 ft 156 kts 39°
2026-04-27 04:00 40.07184 32.96309 3778 ft 157 kts 39°
2026-04-27 04:01 40.08064 32.97127 3568 ft 154 kts 36°
2026-04-27 04:01 40.08939 32.97919 3363 ft 151 kts 36°
2026-04-27 04:01 40.09779 32.98732 3195 ft 152 kts 37°
2026-04-27 04:01 40.10627 32.99536 3121 ft 143 kts 38°
2026-04-27 04:02 40.11312 33.00192 3129 ft 104 kts 36°
2026-04-27 04:02 40.11776 33.00632 3142 ft 60 kts 37°
2026-04-27 04:02 40.12000 33.00846 3147 ft 27 kts 36°
2026-04-27 04:02 40.12143 33.00981 3151 ft 17 kts 37°
2026-04-27 04:03 40.12213 33.01028 3152 ft 11 kts 20°
2026-04-27 04:03 40.12286 33.01059 3154 ft 11 kts 13°
2026-04-27 04:03 40.12360 33.01068 3155 ft 10 kts
2026-04-27 04:03 40.12431 33.01075 3157 ft 10 kts
2026-04-27 04:04 40.12497 33.01062 3157 ft 10 kts 312°
2026-04-27 04:04 40.12472 33.00989 3156 ft 10 kts 214°
2026-04-27 04:04 40.12416 33.00939 3155 ft 10 kts 215°
2026-04-27 04:04 40.12363 33.00887 3155 ft 9 kts 217°
2026-04-27 04:05 40.12312 33.00836 3153 ft 9 kts 216°
2026-04-27 04:05 40.12282 33.00808 3153 ft 9 kts 216°
2026-04-27 04:05 40.12235 33.00764 3151 ft 9 kts 216°
2026-04-27 04:05 40.12187 33.00718 3149 ft 8 kts 216°
2026-04-27 04:06 40.12140 33.00674 3148 ft 8 kts 216°
2026-04-27 04:06 40.12095 33.00630 3147 ft 8 kts 216°
2026-04-27 04:06 40.12051 33.00589 3145 ft 8 kts 216°
2026-04-27 04:07 40.11985 33.00526 3144 ft 7 kts 216°
2026-04-27 04:07 40.11943 33.00487 3143 ft 8 kts 216°
2026-04-27 04:07 40.11880 33.00427 3141 ft 15 kts 216°
2026-04-27 04:07 40.11778 33.00327 3138 ft 21 kts 217°
2026-04-27 04:08 40.11690 33.00242 3136 ft 11 kts 217°
2026-04-27 04:08 40.11630 33.00182 3134 ft 11 kts 220°
2026-04-27 04:08 40.11623 33.00088 3130 ft 13 kts 295°
2026-04-27 04:08 40.11682 32.99972 3123 ft 17 kts 307°
2026-04-27 04:09 40.11758 32.99845 3116 ft 17 kts 307°
2026-04-27 04:09 40.11798 32.99721 3112 ft 16 kts 257°
2026-04-27 04:09 40.11785 32.99583 3112 ft 15 kts 268°
2026-04-27 04:09 40.11808 32.99513 3112 ft 7 kts 324°
2026-04-27 04:10 40.11845 32.99473 3112 ft 7 kts 319°
2026-04-27 04:10 40.11888 32.99447 3112 ft 7 kts 347°
2026-04-27 04:10 40.11928 32.99440 3112 ft 0 kts 352°
2026-04-27 04:11 40.11930 32.99440 3112 ft 1 kts 352°
2026-04-27 04:11 40.11934 32.99439 3112 ft 0 kts 352°